"Pseudo-MPEC" for P11DBYi

Created 2023 Mar 26 6:22:09 UT using Find_Orb

Click here for an explanation of pseudo-MPECs

 
 Astrometry: 
     P11DBYi 1C2023 02 13.40534512 34 17.339+31 21 49.18   ~3IJM 21.97GVNEOCPG96
     P11DBYi 1C2023 02 13.41050912 34 17.353+31 21 57.78   ~3IJM 21.48GVNEOCPG96
     P11DBYi 1C2023 02 13.41563912 34 17.396+31 22 05.95   ~3IJM 21.46GVNEOCPG96
     P11DBYi 1C2023 02 13.42077912 34 17.400+31 22 14.05   ~3IJM 22.23GVNEOCPG96
     P11DBYi* C2023 03 18'u2ZAstrometryQ4W@ht@T0cre+k%Q?)x'*VE'@pbo(dO3x`S@4MF51
     P11DBYi  C2023 03 18uD7m/vredacted;8hM1q%lU[76U-xJibyW;_05sclick80q)W[%pF51
     P11DBYi  C2023 03 18I,[u1hereN*FeA!M?K\JsQc^f6vforQ-explanation%.h^XlD:gF51
     P11DBYi  C2023 03 18/hqU-lVZ2'QH+$yH?^lpkKY4ck-+GpMrK5e'owbyGYxoOqSBhymGF51

Station data:
(F51) Pan-STARRS 1, Haleakala  (N20.707234 W156.255910)  US/Hawaii.
   Observers J. Bulger, T. Lowe, A. Schultz, M. Willman. Measurers K.
   Chambers, S. Chastel, T. de Boer, L. Denneau, J. Fairlamb, H. Flewelling,
   M. Huber, C.-C. Lin, E. Magnier, Y. Ramanjooloo, R. Wainscoat, R. Weryk.
   1.8-m Ritchey-Chrétien + CCD.
(G96) Mt. Lemmon Survey  (N32.442751 W110.788720)  US/Arizona.  Observers T.
   A. Pruyne, B. M. Africano, E. J. Christensen, G. A. Farneth, D. C. Fuls,
   A. R. Gibbs, A. D. Grauer, H. Gröller, J. A. Johnson, R. A. Kowalski, S.
   M. Larson, G. J. Leonard, D. Rankin, R. L. Seaman, F. C. Shelly, K. W.
   Wierzchoś. 1.5-m reflector + 10K CCD.

Orbital elements:  P11DBYi
   Perihelion 2022 Nov 7.18934 +/- 2.17 TT =  4:32:39 (JD 2459890.68934)
Epoch 2023 Mar 18.0 TT = JDT 2460021.5   Earth MOID: 0.4828      AutoNEOCP
M  61.87206313 +/- 0.28             (J2000 ecliptic)
n   0.47298946 +/- 0.00654          Peri.  352.43588 +/- 1.8
a   1.63142983 +/- 0.015            Node   107.88084 +/- 0.7
e   0.1017850 +/- 0.0105            Incl.   17.46032 +/- 0.29
P   2.08/761.10d           H 20.85  G  0.15   U  9.4
q 1.46537462 +/- 0.0103    Q 1.79748505 +/- 0.0319
From 8 observations 2023 Feb. 13-Mar. 18; mean residual 0".10
Residuals in arcseconds: 
230213 G96  .08+  .14-    230213 G96  .14-  .09-    230318 F51  .16+  .01+    
230213 G96  .08-  .15+    230318 F51  .03-  .02+    230318 F51  .10-  .00     
230213 G96  .14+  .07+    230318 F51  .02-  .03-    

Ephemerides (geocentric):
Date (UTC) HH   RA             Dec           delta  r     elong  mag " sig PA
---- --------  ------------   ------------  ------ ------ -----  --- --------
2023 03 26 06  12 03 20.660   +42 47 50.71  .70605 1.5782 135.1 22.3 60.5  24
2023 03 26 07  12 03 17.846   +42 47 54.07  .70622 1.5782 135.1 22.3 60.9  24
2023 03 26 08  12 03 15.033   +42 47 57.34  .70640 1.5783 135.0 22.3 61.2  24
2023 03 26 09  12 03 12.223   +42 48 00.53  .70658 1.5783 135.0 22.3 61.6  24
2023 03 26 10  12 03 09.415   +42 48 03.64  .70676 1.5784 135.0 22.3 62.0  24
2023 03 26 11  12 03 06.609   +42 48 06.65  .70694 1.5785 135.0 22.3 62.4  24
2023 03 26 12  12 03 03.805   +42 48 09.58  .70711 1.5785 135.0 22.3 62.8  24
2023 03 26 13  12 03 01.003   +42 48 12.43  .70729 1.5786 134.9 22.3 63.2  24
2023 03 26 14  12 02 58.204   +42 48 15.19  .70747 1.5786 134.9 22.3 63.6  24
2023 03 26 15  12 02 55.406   +42 48 17.87  .70765 1.5787 134.9 22.3 64.0  24
2023 03 26 16  12 02 52.611   +42 48 20.46  .70783 1.5787 134.9 22.3 64.4  24
2023 03 26 17  12 02 49.817   +42 48 22.96  .70801 1.5788 134.9 22.3 64.8  24
2023 03 26 18  12 02 47.026   +42 48 25.38  .70819 1.5789 134.8 22.3 65.1  24
2023 03 26 19  12 02 44.238   +42 48 27.72  .70837 1.5789 134.8 22.3 65.5  24
2023 03 26 20  12 02 41.451   +42 48 29.96  .70855 1.5790 134.8 22.3 65.9  23
2023 03 26 21  12 02 38.667   +42 48 32.13  .70873 1.5790 134.8 22.3 66.3  23
2023 03 26 22  12 02 35.884   +42 48 34.21  .70891 1.5791 134.8 22.3 66.7  23
2023 03 26 23  12 02 33.104   +42 48 36.20  .70909 1.5791 134.7 22.3 67.1  23
2023 03 27 00  12 02 30.327   +42 48 38.11  .70927 1.5792 134.7 22.3 67.5  23
2023 03 27 01  12 02 27.551   +42 48 39.94  .70945 1.5792 134.7 22.4 67.9  23
2023 03 27 02  12 02 24.778   +42 48 41.68  .70963 1.5793 134.7 22.4 68.3  23
2023 03 27 03  12 02 22.007   +42 48 43.33  .70981 1.5794 134.7 22.4 68.7  23
2023 03 27 04  12 02 19.238   +42 48 44.90  .70999 1.5794 134.6 22.4 69.1  23
2023 03 27 05  12 02 16.472   +42 48 46.39  .71017 1.5795 134.6 22.4 69.5  23
2023 03 27 06  12 02 13.708   +42 48 47.79  .71035 1.5795 134.6 22.4 69.9  23
2023 03 27 07  12 02 10.946   +42 48 49.10  .71054 1.5796 134.6 22.4 70.3  23
2023 03 27 08  12 02 08.187   +42 48 50.34  .71072 1.5796 134.5 22.4 70.7  23
2023 03 27 09  12 02 05.430   +42 48 51.48  .71090 1.5797 134.5 22.4 71.1  23
2023 03 27 10  12 02 02.675   +42 48 52.55  .71108 1.5797 134.5 22.4 71.5  23
2023 03 27 11  12 01 59.923   +42 48 53.53  .71126 1.5798 134.5 22.4 71.9  23
2023 03 27 12  12 01 57.173   +42 48 54.42  .71145 1.5799 134.5 22.4 72.3  23
2023 03 27 13  12 01 54.425   +42 48 55.23  .71163 1.5799 134.4 22.4 72.7  23
2023 03 27 14  12 01 51.680   +42 48 55.96  .71181 1.5800 134.4 22.4 73.1  23
2023 03 27 15  12 01 48.937   +42 48 56.60  .71200 1.5800 134.4 22.4 73.5  23
2023 03 27 16  12 01 46.197   +42 48 57.16  .71218 1.5801 134.4 22.4 73.9  23
2023 03 27 17  12 01 43.459   +42 48 57.64  .71236 1.5801 134.4 22.4 74.3  23
2023 03 27 18  12 01 40.724   +42 48 58.03  .71255 1.5802 134.3 22.4 74.7  23
2023 03 27 19  12 01 37.991   +42 48 58.33  .71273 1.5803 134.3 22.4 75.1  23
2023 03 27 20  12 01 35.260   +42 48 58.56  .71292 1.5803 134.3 22.4 75.5  23
2023 03 27 21  12 01 32.532   +42 48 58.70  .71310 1.5804 134.3 22.4 75.9  23
2023 03 27 22  12 01 29.806   +42 48 58.75  .71329 1.5804 134.2 22.4 76.3  23
2023 03 27 23  12 01 27.083   +42 48 58.73  .71347 1.5805 134.2 22.4 76.7  22
2023 03 28 00  12 01 24.362   +42 48 58.61  .71366 1.5805 134.2 22.4 77.2  22
2023 03 28 01  12 01 21.644   +42 48 58.42  .71384 1.5806 134.2 22.4 77.6  22
2023 03 28 02  12 01 18.928   +42 48 58.14  .71403 1.5806 134.2 22.4 78.0  22
2023 03 28 03  12 01 16.215   +42 48 57.78  .71421 1.5807 134.1 22.4 78.4  22
2023 03 28 04  12 01 13.505   +42 48 57.34  .71440 1.5808 134.1 22.4 78.8  22
2023 03 28 05  12 01 10.797   +42 48 56.81  .71458 1.5808 134.1 22.4 79.2  22